• In Portugal
  • List of Countries
  • For 7 days
  • Water Temperature
  • Satellite Maps
  • Weather Map
  • Weather Widgets
  • user-avatar
    Login

    Hourly Weather Gwozdzianka

    Today, 16 July, Monday

    Time Temperature Precipitation Wind Pressure Humidity
    00:00 +15°C° 0 mm 2 mps 730 mmHg 96%
    01:00 +15°C° 0 mm 2 mps 729 mmHg 97%
    02:00 +15°C° 0.1 mm 2 mps 729 mmHg 97%
    03:00 +15°C° 0.1 mm 2 mps 729 mmHg 97%
    04:00 +14°C° 0.1 mm 3 mps 729 mmHg 97%
    05:00 +16°C° 0.2 mm 3 mps 729 mmHg 95%
    06:00 +17°C° 0.2 mm 4 mps 729 mmHg 92%
    07:00 +18°C° 0 mm 4 mps 729 mmHg 90%
    08:00 +19°C° 1.1 mm 4 mps 729 mmHg 87%
    09:00 +20°C° 1.1 mm 5 mps 729 mmHg 85%
    10:00 +21°C° 1.1 mm 5 mps 728 mmHg 82%
    11:00 +21°C° 0.7 mm 4 mps 728 mmHg 80%
    12:00 +22°C° 0.7 mm 4 mps 728 mmHg 78%
    13:00 +23°C° 0.7 mm 4 mps 728 mmHg 76%
    14:00 +23°C° 0.5 mm 4 mps 728 mmHg 76%
    15:00 +23°C° 0.5 mm 4 mps 727 mmHg 76%
    16:00 +23°C° 0.5 mm 4 mps 727 mmHg 77%
    17:00 +22°C° 0.3 mm 4 mps 727 mmHg 81%
    18:00 +20°C° 0.3 mm 3 mps 727 mmHg 84%
    19:00 +19°C° 0.3 mm 3 mps 727 mmHg 88%
    20:00 +19°C° 0.1 mm 3 mps 726 mmHg 91%
    21:00 +18°C° 0.1 mm 3 mps 726 mmHg 93%
    22:00 +17°C° 0.1 mm 2 mps 726 mmHg 95%
    23:00 +17°C° 0.1 mm 3 mps 726 mmHg 95%

    Tomorrow, 17 July, Tuesday

    Time Temperature Precipitation Wind Pressure Humidity
    00:00 +16°C° 0.1 mm 3 mps 726 mmHg 96%
    01:00 +16°C° 0.1 mm 3 mps 726 mmHg 96%
    02:00 +16°C° 0 mm 3 mps 726 mmHg 96%
    03:00 +16°C° 0 mm 3 mps 726 mmHg 97%
    04:00 +16°C° 0 mm 3 mps 725 mmHg 97%
    05:00 +16°C° 0 mm 3 mps 725 mmHg 95%
    06:00 +17°C° 0 mm 4 mps 725 mmHg 92%
    07:00 +18°C° 0 mm 4 mps 725 mmHg 90%
    08:00 +19°C° 0.2 mm 4 mps 726 mmHg 88%
    09:00 +20°C° 0.2 mm 5 mps 726 mmHg 87%
    10:00 +20°C° 0.2 mm 5 mps 726 mmHg 85%
    11:00 +21°C° 0.6 mm 5 mps 725 mmHg 84%
    12:00 +21°C° 0.6 mm 5 mps 725 mmHg 83%
    13:00 +22°C° 0.6 mm 5 mps 725 mmHg 83%
    14:00 +22°C° 0.7 mm 5 mps 725 mmHg 83%
    15:00 +22°C° 0.7 mm 5 mps 725 mmHg 84%
    16:00 +22°C° 0.7 mm 5 mps 725 mmHg 84%
    17:00 +21°C° 0.4 mm 5 mps 725 mmHg 87%
    18:00 +20°C° 0.4 mm 5 mps 725 mmHg 89%
    19:00 +19°C° 0.4 mm 4 mps 725 mmHg 92%
    20:00 +18°C° 0.1 mm 4 mps 725 mmHg 93%
    21:00 +18°C° 0.1 mm 4 mps 725 mmHg 94%
    22:00 +17°C° 0.1 mm 4 mps 725 mmHg 95%
    23:00 +17°C° 0.2 mm 4 mps 725 mmHg 95%

    Day after tomorrow, 18 July, Wednesday

    Time Temperature Precipitation Wind Pressure Humidity
    00:00 +17°C° 0.2 mm 4 mps 725 mmHg 96%
    01:00 +17°C° 0.2 mm 4 mps 724 mmHg 96%
    02:00 +17°C° 0.5 mm 4 mps 724 mmHg 97%
    03:00 +17°C° 0.5 mm 4 mps 724 mmHg 97%
    04:00 +17°C° 0.5 mm 4 mps 724 mmHg 97%
    05:00 +17°C° 1.1 mm 4 mps 724 mmHg 97%
    06:00 +17°C° 1.1 mm 4 mps 724 mmHg 97%
    07:00 +18°C° 1.1 mm 4 mps 724 mmHg 97%
    08:00 +18°C° 2 mm 4 mps 724 mmHg 96%
    09:00 +17°C° 2 mm 5 mps 725 mmHg 96%
    10:00 +17°C° 2 mm 5 mps 725 mmHg 96%
    11:00 +17°C° 0.8 mm 5 mps 725 mmHg 95%
    12:00 +19°C° 0.8 mm 5 mps 725 mmHg 94%
    13:00 +19°C° 0.8 mm 6 mps 725 mmHg 93%
    14:00 +19°C° 0.6 mm 5 mps 725 mmHg 93%
    15:00 +19°C° 0.6 mm 5 mps 725 mmHg 93%
    16:00 +19°C° 0.6 mm 5 mps 725 mmHg 94%
    17:00 +19°C° 1.5 mm 5 mps 725 mmHg 94%
    18:00 +19°C° 1.5 mm 5 mps 725 mmHg 95%
    19:00 +19°C° 1.5 mm 5 mps 725 mmHg 95%
    20:00 +19°C° 0.9 mm 5 mps 725 mmHg 96%
    21:00 +19°C° 0.9 mm 5 mps 725 mmHg 96%
    22:00 +19°C° 0.9 mm 5 mps 725 mmHg 97%
    23:00 +19°C° 0.5 mm 5 mps 725 mmHg 97%

    19 July, Thursday

    Time Temperature Precipitation Wind Pressure Humidity
    00:00 +19°C° 0.5 mm 5 mps 725 mmHg 97%
    01:00 +19°C° 0.5 mm 5 mps 725 mmHg 97%
    02:00 +19°C° 0.3 mm 5 mps 725 mmHg 97%
    03:00 +19°C° 0.3 mm 5 mps 725 mmHg 97%
    04:00 +19°C° 0.3 mm 4 mps 725 mmHg 97%
    05:00 +19°C° 0.5 mm 4 mps 725 mmHg 97%
    06:00 +19°C° 0.5 mm 4 mps 726 mmHg 97%
    07:00 +19°C° 0.5 mm 4 mps 726 mmHg 96%
    08:00 +20°C° 0.7 mm 4 mps 726 mmHg 95%
    09:00 +20°C° 0.7 mm 4 mps 726 mmHg 94%
    10:00 +20°C° 0.7 mm 4 mps 727 mmHg 94%
    11:00 +20°C° 0.3 mm 4 mps 727 mmHg 92%
    12:00 +21°C° 0.3 mm 4 mps 727 mmHg 90%
    13:00 +21°C° 0.3 mm 5 mps 727 mmHg 88%
    14:00 +22°C° 0.3 mm 5 mps 727 mmHg 86%
    15:00 +22°C° 0.3 mm 6 mps 727 mmHg 85%
    16:00 +23°C° 0.3 mm 6 mps 727 mmHg 83%
    17:00 +22°C° 0.2 mm 6 mps 727 mmHg 86%
    18:00 +21°C° 0.2 mm 6 mps 728 mmHg 88%
    19:00 +20°C° 0.2 mm 5 mps 728 mmHg 91%
    20:00 +19°C° 0 mm 5 mps 728 mmHg 92%
    21:00 +19°C° 0 mm 5 mps 728 mmHg 93%
    22:00 +17°C° 0 mm 5 mps 728 mmHg 95%
    23:00 +17°C° 0 mm 5 mps 728 mmHg 95%

    20 July, Friday

    Time Temperature Precipitation Wind Pressure Humidity
    00:00 +17°C° 0 mm 5 mps 728 mmHg 95%
    01:00 +17°C° 0 mm 5 mps 728 mmHg 95%
    02:00 +17°C° 0.1 mm 5 mps 728 mmHg 95%
    03:00 +18°C° 0.1 mm 4 mps 728 mmHg 96%
    04:00 +18°C° 0.1 mm 4 mps 728 mmHg 96%
    05:00 +18°C° 0.1 mm 4 mps 729 mmHg 95%
    06:00 +18°C° 0.1 mm 4 mps 729 mmHg 94%
    07:00 +19°C° 0.1 mm 4 mps 729 mmHg 94%
    08:00 +19°C° 0.1 mm 4 mps 729 mmHg 92%
    09:00 +19°C° 0.1 mm 4 mps 729 mmHg 90%
    10:00 +20°C° 0.1 mm 4 mps 730 mmHg 88%
    11:00 +20°C° 0.2 mm 4 mps 730 mmHg 86%
    12:00 +21°C° 0.2 mm 4 mps 729 mmHg 84%
    13:00 +22°C° 0.2 mm 5 mps 729 mmHg 82%
    14:00 +22°C° 0.1 mm 4 mps 729 mmHg 81%
    15:00 +22°C° 0.1 mm 4 mps 729 mmHg 81%
    16:00 +22°C° 0.1 mm 4 mps 729 mmHg 80%
    17:00 +21°C° 0.1 mm 3 mps 729 mmHg 84%
    18:00 +20°C° 0.1 mm 2 mps 729 mmHg 88%
    19:00 +19°C° 0.1 mm 2 mps 729 mmHg 91%
    20:00 +19°C° 0 mm 2 mps 729 mmHg 92%
    21:00 +18°C° 0 mm 2 mps 729 mmHg 93%
    22:00 +19°C° 0 mm 1 mps 730 mmHg 94%
    23:00 +18°C° 0 mm 1 mps 729 mmHg 95%

    21 July, Saturday

    Time Temperature Precipitation Wind Pressure Humidity
    00:00 +18°C° 0 mm 1 mps 729 mmHg 95%
    01:00 +16°C° 0 mm 1 mps 729 mmHg 96%
    02:00 +16°C° 0 mm 1 mps 729 mmHg 96%
    03:00 +16°C° 0 mm 1 mps 729 mmHg 96%
    04:00 +15°C° 0 mm 1 mps 729 mmHg 96%
    05:00 +18°C° 0 mm 1 mps 729 mmHg 93%
    06:00 +18°C° 0 mm 2 mps 729 mmHg 89%
    07:00 +19°C° 0 mm 2 mps 729 mmHg 85%
    08:00 +21°C° 0 mm 2 mps 729 mmHg 79%
    09:00 +23°C° 0 mm 2 mps 729 mmHg 73%
    10:00 +25°C° 0 mm 2 mps 729 mmHg 66%
    11:00 +25°C° 0 mm 2 mps 729 mmHg 63%
    12:00 +26°C° 0 mm 2 mps 729 mmHg 60%
    13:00 +27°C° 0 mm 2 mps 729 mmHg 57%
    14:00 +27°C° 0.1 mm 2 mps 728 mmHg 59%
    15:00 +26°C° 0.1 mm 2 mps 728 mmHg 61%
    16:00 +26°C° 0.1 mm 2 mps 728 mmHg 63%
    17:00 +25°C° 0.1 mm 2 mps 728 mmHg 71%
    18:00 +23°C° 0.1 mm 2 mps 728 mmHg 78%
    19:00 +21°C° 0.1 mm 2 mps 728 mmHg 86%
    20:00 +20°C° 0.1 mm 2 mps 728 mmHg 88%
    21:00 +20°C° 0.1 mm 1 mps 728 mmHg 90%
    22:00 +19°C° 0.1 mm 1 mps 728 mmHg 92%
    23:00 +18°C° 0 mm 1 mps 728 mmHg 91%
    Show more